Skip Page Navigation
NASA JPL Caltech
NASA Logo - Jet Propulsion Laboratory + View the NASA Portal
+ Center for Near-Earth Object Studies
JPL Home Earth Solar System Stars & Galaxies Technology
JPL Solar System Dynamics
BODIES ORBITS EPHEMERIDES TOOLS PHYSICAL DATA DISCOVERY FAQ SITE MAP
JPL Small-Body Database Browser
Search: [ help ]  
447518 (2006 SW107)
Classification: Main-belt Asteroid          SPK-ID: 2447518
Ephemeris | Orbit Diagram | Orbital Elements | Mission Design | Physical Parameters | Discovery Circumstances ]

[ show orbit diagram ]
Orbital Elements at Epoch 2459000.5 (2020-May-31.0) TDB
Reference: JPL 14 (heliocentric ecliptic J2000)
 Element Value Uncertainty (1-sigma)   Units 
e .2601338800724158 5.3607e-08  
a 2.674197723216272 1.9908e-08 au
q 1.978548293395203 1.4868e-07 au
i 14.93479901419806 6.1683e-06 deg
node 158.4204897818416 2.1286e-05 deg
peri 202.9972931416668 3.1199e-05 deg
M 48.91360094937227 1.457e-05 deg
tp 2458783.471966976693
(2019-Oct-26.97196698)
6.517e-05 TDB
period 1597.308118231955
4.37
1.7837e-05
4.884e-08
d
yr
n .2253791838223927 2.5167e-09 deg/d
Q 3.369847153037341 2.5086e-08 au
  Orbit Determination Parameters
   # obs. used (total)      164  
   data-arc span      4851 days (13.28 yr)  
   first obs. used      2006-07-21  
   last obs. used      2019-11-01  
   planetary ephem.      DE431  
   SB-pert. ephem.      SB431-N16  
   condition code      0  
   norm. resid. RMS      .50977  
   source      ORB  
   producer      Otto Matic  
   solution date      2019-Nov-08 16:21:47  

Additional Information
 Earth MOID = .982101 au 
 Jupiter MOID = 2.09618 au 
 T_jup = 3.283 
[ show covariance matrix ]

Ephemeris | Orbit Diagram | Orbital Elements | Mission Design | Physical Parameters | Discovery Circumstances ]

Physical Parameter Table
Parameter Symbol Value Units Sigma Reference Notes
absolute magnitude H 16.8   n/a MPO495221  

447518 (2006 SW107)          Discovered 2006-Jul-21 by Mt. Lemmon Survey at Mount Lemmon
Reference: Last Updated: 2015-10-28
Ephemeris | Orbit Diagram | Orbital Elements | Mission Design | Physical Parameters | Discovery Circumstances ]
ABOUT SSD CREDITS/AWARDS PRIVACY/COPYRIGHT GLOSSARY LINKS
FirstGov 2020-Oct-25 06:25 UT
(server date/time)  
NASA Home Page
Site Manager:   Ryan S. Park
Webmaster  Alan B. Chamberlin